Location: Leuk
(46.3174°N, 7.6341°E)
Time: 07:28:10
(UTC+00:00)

ADEOS - Pass Details

Date: 09 March 2021
Orbit: 792 x 794 km, 98.9° (Epoch: 19 April)

Event Time Altitude Azimuth Distance (km) Brightness Sun altitude
Rises 05:01:37 0° 10° (N) 3,308 7.0 -9.8°
Reaches altitude 10° 05:04:01 10° 5° (N) 2,374 6.2 -9.4°
Maximum altitude 05:09:03 50° 291° (WNW) 1,006 3.8 -8.5°
Drops below altitude 10° 05:14:04 10° 217° (SW) 2,358 5.7 -7.7°
Sets 05:16:26 0° 212° (SSW) 3,283 6.4 -7.3°
